カタログに戻る

SL-14 DEB

運用中PO
NORAD 25203·DEBRIS·🇷🇺 Russia

打ち上げ Aug 18, 1987 から Plesetsk Cosmodrome

Loading…

次のパス (今後24時間)

TLE

最新Source: Space-Track

元期: Sep 14, 2026, 02:23 UTC

1 25203U 87068AE  26257.09985868  .00000759  00000-0  29254-3 0  9992
2 25203  82.2667 142.4197 0091986  98.1726 262.9904 14.26842762477786

AllMySatでSL-14 DEBをリアルタイム追跡

Download on the App Store